When you browse on this site, cookies collect data to enhance your experience and personalize the content and advertising you see.
Visit our Privacy Policy to learn more. By continuing to use the site, you agree to this use of cookies and data.
  • In Portugal
  • List of Countries
  • For 7 days
  • Water Temperature
  • Satellite Maps
  • Weather Map
  • Weather Widgets
  • user-avatar
    Login

    Hourly Weather Lipuhina

    Today, 20 April, Saturday

    Time Temperature Precipitation Wind Pressure Humidity
    00:00 +1°C° 0 mm 1 mps 754 mmHg 88%
    01:00 +1°C° 0 mm 1 mps 754 mmHg 90%
    02:00 0°C° 0 mm 1 mps 754 mmHg 90%
    03:00 0°C° 0 mm 1 mps 754 mmHg 91%
    04:00 -1°C° 0 mm 1 mps 754 mmHg 89%
    05:00 0°C° 0 mm 1 mps 754 mmHg 87%
    06:00 +1°C° 0 mm 1 mps 754 mmHg 85%
    07:00 +2°C° 0 mm 1 mps 754 mmHg 83%
    08:00 +3°C° 0 mm 1 mps 754 mmHg 78%
    09:00 +4°C° 0 mm 2 mps 754 mmHg 74%
    10:00 +5°C° 0 mm 2 mps 754 mmHg 72%
    11:00 +5°C° 0 mm 2 mps 754 mmHg 71%
    12:00 +5°C° 0 mm 2 mps 755 mmHg 69%
    13:00 +6°C° 0 mm 2 mps 755 mmHg 68%
    14:00 +6°C° 0.1 mm 2 mps 755 mmHg 67%
    15:00 +7°C° 0.1 mm 2 mps 755 mmHg 65%
    16:00 +7°C° 0.1 mm 2 mps 755 mmHg 63%
    17:00 +6°C° 0 mm 2 mps 755 mmHg 68%
    18:00 +5°C° 0 mm 2 mps 755 mmHg 73%
    19:00 +6°C° 0 mm 1 mps 755 mmHg 78%
    20:00 +5°C° 0 mm 1 mps 755 mmHg 82%
    21:00 +4°C° 0 mm 1 mps 755 mmHg 86%
    22:00 +3°C° 0 mm 1 mps 756 mmHg 90%
    23:00 +2°C° 0 mm 1 mps 755 mmHg 91%

    Tomorrow, 21 April, Sunday

    Time Temperature Precipitation Wind Pressure Humidity
    00:00 +2°C° 0 mm 1 mps 755 mmHg 92%
    01:00 +1°C° 0 mm 1 mps 755 mmHg 93%
    02:00 +2°C° 0 mm 1 mps 756 mmHg 93%
    03:00 +2°C° 0 mm 1 mps 756 mmHg 93%
    04:00 +2°C° 0 mm 1 mps 756 mmHg 93%
    05:00 +2°C° 0 mm 1 mps 756 mmHg 90%
    06:00 +2°C° 0 mm 2 mps 755 mmHg 87%
    07:00 +3°C° 0 mm 2 mps 755 mmHg 84%
    08:00 +4°C° 0 mm 2 mps 755 mmHg 76%
    09:00 +4°C° 0 mm 3 mps 755 mmHg 68%
    10:00 +5°C° 0 mm 3 mps 755 mmHg 59%
    11:00 +5°C° 0 mm 3 mps 755 mmHg 60%
    12:00 +5°C° 0 mm 3 mps 755 mmHg 61%
    13:00 +6°C° 0 mm 4 mps 755 mmHg 62%
    14:00 +7°C° 0 mm 3 mps 754 mmHg 61%
    15:00 +7°C° 0 mm 3 mps 754 mmHg 61%
    16:00 +8°C° 0 mm 3 mps 754 mmHg 61%
    17:00 +7°C° 0 mm 3 mps 754 mmHg 64%
    18:00 +7°C° 0 mm 2 mps 754 mmHg 68%
    19:00 +6°C° 0 mm 2 mps 754 mmHg 71%
    20:00 +6°C° 0 mm 2 mps 754 mmHg 76%
    21:00 +5°C° 0 mm 2 mps 754 mmHg 81%
    22:00 +4°C° 0 mm 2 mps 754 mmHg 86%
    23:00 +4°C° 0 mm 2 mps 754 mmHg 88%

    Day after tomorrow, 22 April, Monday

    Time Temperature Precipitation Wind Pressure Humidity
    00:00 +4°C° 0 mm 2 mps 754 mmHg 90%
    01:00 +3°C° 0 mm 2 mps 754 mmHg 92%
    02:00 +3°C° 0 mm 2 mps 754 mmHg 92%
    03:00 +3°C° 0 mm 2 mps 754 mmHg 93%
    04:00 +3°C° 0 mm 2 mps 754 mmHg 93%
    05:00 +3°C° 0 mm 2 mps 754 mmHg 90%
    06:00 +4°C° 0 mm 2 mps 754 mmHg 87%
    07:00 +4°C° 0 mm 2 mps 754 mmHg 84%
    08:00 +5°C° 0 mm 3 mps 754 mmHg 77%
    09:00 +8°C° 0 mm 3 mps 754 mmHg 71%
    10:00 +10°C° 0 mm 3 mps 754 mmHg 65%
    11:00 +11°C° 0 mm 3 mps 753 mmHg 61%
    12:00 +11°C° 0 mm 3 mps 753 mmHg 57%
    13:00 +12°C° 0 mm 3 mps 753 mmHg 53%
    14:00 +13°C° 0.1 mm 3 mps 753 mmHg 53%
    15:00 +13°C° 0.1 mm 3 mps 752 mmHg 53%
    16:00 +13°C° 0.1 mm 4 mps 752 mmHg 52%
    17:00 +12°C° 0 mm 3 mps 752 mmHg 57%
    18:00 +11°C° 0 mm 3 mps 751 mmHg 63%
    19:00 +10°C° 0 mm 2 mps 751 mmHg 68%
    20:00 +9°C° 0 mm 2 mps 751 mmHg 73%
    21:00 +8°C° 0 mm 2 mps 751 mmHg 78%
    22:00 +7°C° 0 mm 2 mps 751 mmHg 82%
    23:00 +6°C° 0 mm 2 mps 750 mmHg 83%

    23 April, Tuesday

    Time Temperature Precipitation Wind Pressure Humidity
    00:00 +6°C° 0 mm 2 mps 750 mmHg 83%
    01:00 +4°C° 0 mm 3 mps 750 mmHg 84%
    02:00 +5°C° 0 mm 2 mps 750 mmHg 84%
    03:00 +5°C° 0 mm 2 mps 749 mmHg 84%
    04:00 +5°C° 0 mm 2 mps 749 mmHg 84%
    05:00 +4°C° 0.2 mm 3 mps 749 mmHg 83%
    06:00 +4°C° 0.2 mm 3 mps 749 mmHg 83%
    07:00 +5°C° 0.2 mm 3 mps 749 mmHg 82%
    08:00 +5°C° 0.5 mm 3 mps 749 mmHg 84%
    09:00 +5°C° 0.5 mm 3 mps 749 mmHg 86%
    10:00 +5°C° 0.5 mm 3 mps 749 mmHg 88%
    11:00 +8°C° 0.1 mm 3 mps 749 mmHg 78%
    12:00 +9°C° 0.1 mm 3 mps 749 mmHg 68%
    13:00 +11°C° 0.1 mm 3 mps 749 mmHg 58%
    14:00 +11°C° 0.1 mm 3 mps 749 mmHg 55%
    15:00 +11°C° 0.1 mm 3 mps 749 mmHg 52%
    16:00 +12°C° 0.1 mm 3 mps 749 mmHg 49%
    17:00 +11°C° 0.1 mm 3 mps 749 mmHg 53%
    18:00 +10°C° 0.1 mm 2 mps 750 mmHg 57%
    19:00 +10°C° 0.1 mm 1 mps 750 mmHg 60%
    20:00 +9°C° 0 mm 1 mps 750 mmHg 64%
    21:00 +8°C° 0 mm 1 mps 750 mmHg 67%
    22:00 +7°C° 0 mm 1 mps 750 mmHg 70%
    23:00 +7°C° 0 mm 1 mps 750 mmHg 74%

    24 April, Wednesday

    Time Temperature Precipitation Wind Pressure Humidity
    00:00 +6°C° 0 mm 1 mps 750 mmHg 77%
    01:00 +5°C° 0 mm 1 mps 750 mmHg 81%
    02:00 +5°C° 0 mm 1 mps 750 mmHg 83%
    03:00 +5°C° 0 mm 1 mps 750 mmHg 85%
    04:00 +5°C° 0 mm 1 mps 750 mmHg 87%
    05:00 +5°C° 0 mm 1 mps 749 mmHg 85%
    06:00 +5°C° 0 mm 2 mps 749 mmHg 84%
    07:00 +6°C° 0 mm 2 mps 749 mmHg 82%
    08:00 +6°C° 0.2 mm 2 mps 749 mmHg 83%
    09:00 +6°C° 0.2 mm 2 mps 749 mmHg 85%
    10:00 +6°C° 0.2 mm 2 mps 749 mmHg 87%
    11:00 +7°C° 0.1 mm 3 mps 749 mmHg 85%
    12:00 +8°C° 0.1 mm 3 mps 749 mmHg 84%
    13:00 +9°C° 0.1 mm 3 mps 749 mmHg 82%
    14:00 +8°C° 0.1 mm 4 mps 749 mmHg 77%
    15:00 +10°C° 0.1 mm 4 mps 749 mmHg 72%
    16:00 +9°C° 0.1 mm 5 mps 750 mmHg 66%
    17:00 +8°C° 0 mm 4 mps 750 mmHg 71%
    18:00 +9°C° 0 mm 3 mps 750 mmHg 75%
    19:00 +8°C° 0 mm 2 mps 750 mmHg 80%
    20:00 +7°C° 0 mm 2 mps 750 mmHg 83%
    21:00 +7°C° 0 mm 2 mps 750 mmHg 87%
    22:00 +6°C° 0 mm 2 mps 750 mmHg 91%
    23:00 +6°C° 0 mm 2 mps 750 mmHg 91%

    25 April, Thursday

    Time Temperature Precipitation Wind Pressure Humidity
    00:00 +6°C° 0 mm 2 mps 751 mmHg 91%
    01:00 +6°C° 0 mm 2 mps 751 mmHg 91%
    02:00 +5°C° 0 mm 2 mps 751 mmHg 92%
    03:00 +5°C° 0 mm 2 mps 751 mmHg 93%
    04:00 +4°C° 0 mm 2 mps 751 mmHg 94%
    05:00 +4°C° 0 mm 2 mps 751 mmHg 91%
    06:00 +5°C° 0 mm 2 mps 752 mmHg 87%
    07:00 +6°C° 0 mm 2 mps 752 mmHg 84%
    08:00 +7°C° 0 mm 2 mps 752 mmHg 76%
    09:00 +8°C° 0 mm 2 mps 752 mmHg 69%
    10:00 +10°C° 0 mm 3 mps 752 mmHg 62%
    11:00 +11°C° 0 mm 3 mps 752 mmHg 58%
    12:00 +12°C° 0 mm 3 mps 751 mmHg 55%
    13:00 +14°C° 0 mm 3 mps 751 mmHg 51%
    14:00 +14°C° 0.1 mm 4 mps 750 mmHg 51%
    15:00 +15°C° 0.1 mm 4 mps 750 mmHg 51%
    16:00 +15°C° 0.1 mm 5 mps 749 mmHg 51%
    17:00 +14°C° 0.4 mm 4 mps 749 mmHg 57%
    18:00 +13°C° 0.4 mm 4 mps 749 mmHg 63%
    19:00 +12°C° 0.4 mm 3 mps 749 mmHg 69%
    20:00 +11°C° 0 mm 3 mps 749 mmHg 74%
    21:00 +10°C° 0 mm 2 mps 750 mmHg 80%
    22:00 +8°C° 0 mm 2 mps 750 mmHg 85%
    23:00 +7°C° 0 mm 2 mps 751 mmHg 88%
    Show more